GALAXY 13 (HORIZONS-1)

Last updated on Sun Jun 21 2026 00:03:03 GMT+0000 (Coordinated Universal Time)

1 27954U 03044A 26171.44697670 .00000128 00000+0 00000+0 0 9997 2 27954 1.4272 83.8231 0002186 358.3330 197.4020 1.00272486 46601
UTC large
Height (km)
Speed (km/s)
/
Latitude / Longitude
Inclination (degrees)
Orbital Period (minutes)
Azimuth
Elevation
Range (km)
Doppler Factor

Next 0 passes for location: London (51.5072 / 0.1276)

No passes found over London.
GALAXY 13 (HORIZONS-1)